Hourly Data Report for June 24, 2017

All times are specified in Local Standard Time (LST). Add 1 hour to adjust for Daylight Saving Time where and when it is observed.

GRANBY
QUEBEC

45°22'22.000" N
72°46'26.000" W
86.00 m
7022802
MGB

Related Data

No related data is available for this station

Download Data

Hourly Data (June 2017)
Hourly Data Report for June 24, 2017
Temp Definition
°C
Dew Point Temp Definition
°C
Rel Hum Definition
%
Wind Dir Definition
10's deg

Wind Spd Definition
km/h
Visibility Definition
km
Stn Press Definition
kPa
Hmdx Definition


Wind Chill Definition


Weather Definition


TIME
00:00 20.8 20.2 97 20 3   98.68 29   LegendNANA
01:00 20.8 20.2 97 22 3   98.65 29   LegendNANA
02:00 20.4 19.8 96 20 3   98.63 28   LegendNANA
03:00 20.4 19.8 96 24 7   98.64 28   LegendNANA
04:00 20.3 19.6 96 25 7   98.67 28   LegendNANA
05:00 18.5 17.0 91 31 7   98.72     LegendNANA
06:00 17.9 15.4 86 33 5   98.82     LegendNANA
07:00 18.6 15.7 84 28 5   98.93     LegendNANA
08:00 19.0 15.4 80 30 7   98.98     LegendNANA
09:00 19.9 15.1 74 28 7   99.03     LegendNANA
10:00 21.3 15.4 69 25 5   99.10 26   LegendNANA
11:00 22.3 15.0 63 26 5   99.15 26   LegendNANA
12:00 23.7 15.1 59 25 9   99.21 28   LegendNANA
13:00 24.3 15.2 57 24 9   99.19 28   LegendNANA
14:00 24.7 13.6 50 25 12   99.23 28   LegendNANA
15:00 23.8 15.2 59 26 10   99.25 28   LegendNANA
16:00 24.9 13.7 50 24 11   99.28 28   LegendNANA
17:00 24.8 14.9 54 24 8   99.29 29   LegendNANA
18:00 22.0 13.9 60 31 9   99.37 25   LegendNANA
19:00 21.9 14.5 63 30 8   99.52 26   LegendNANA
20:00 17.8 15.7 88 29 4   99.65     LegendNANA
21:00 16.9 15.4 91 24 1   99.76     LegendNANA
22:00 16.8 15.4 91 24 5   99.81     LegendNANA
23:00 15.9 15.1 95 21 3   99.87     LegendNANA

Notes on Data Quality.

Legend

  • E = Estimated
  • M = Missing
  • NA = Not Available
  • ‡ = Partner data that is not subject to review by the National Climate Archives
Date modified: